NM5I Weather Reports


Display with metric or nautical units.
time (UTC)temp
F
wind
direction
speed
MPH
gust
MPH
rain 1hr
in
rain 24hr
in
rain mn
in
humidity
%
barometer
mb
20220625040132 87 173 0.0 1.0 0.00 0.00 0.00 61 1012.4
20220625035150 88 173 0.0 1.0 0.00 0.00 0.00 60 1012.3
20220625034140 89 173 0.0 1.0 0.00 0.00 0.00 59 1012.2
20220625033130 89 173 0.0 1.0 0.00 0.00 0.00 57 1012.1
20220625032141 90 173 0.0 1.0 0.00 0.00 0.00 56 1012.0
20220625031130 91 173 0.0 1.0 0.00 0.00 0.00 54 1011.9
20220625030124 91 173 0.0 2.0 0.00 0.00 0.00 54 1011.9
20220625025144 91 177 1.0 4.0 0.00 0.00 0.00 53 1011.8
20220625024132 92 184 1.0 3.0 0.00 0.00 0.00 52 1011.7
20220625023143 92 188 1.0 4.0 0.00 0.00 0.00 52 1011.5
20220625022133 92 161 1.0 2.0 0.00 0.00 0.00 52 1011.3
20220625021143 92 163 1.0 2.0 0.00 0.00 0.00 52 1011.1
20220625020126 93 178 0.0 1.0 0.00 0.00 0.00 51 1011.0
20220625015134 93 178 0.0 1.0 0.00 0.00 0.00 50 1010.9
20220625014153 94 179 0.0 1.0 0.00 0.00 0.00 48 1010.8
20220625013141 95 179 0.0 1.0 0.00 0.00 0.00 48 1010.7
20220625012132 95 179 0.0 1.0 0.00 0.00 0.00 47 1010.7
20220625011138 96 81 1.0 4.0 0.00 0.00 0.00 46 1010.7
20220625010133 97 160 0.0 4.0 0.00 0.00 0.00 45 1010.5
20220625005152 98 187 1.0 5.0 0.00 0.00 0.00 43 1010.6
20220625004143 98 138 2.0 6.0 0.00 0.00 0.00 42 1010.6
20220625003131 99 154 2.0 5.0 0.00 0.00 0.00 41 1010.5
20220625002140 99 134 2.0 6.0 0.00 0.00 0.00 40 1010.6
20220625001130 99 179 2.0 7.0 0.00 0.00 0.00 40 1010.5
20220625000149 100 204 2.0 5.0 0.00 0.00 0.00 39 1010.6
20220624235137 100 338 1.0 4.0 0.00 0.00 0.00 39 1010.5
20220624234127 101 182 2.0 5.0 0.00 0.00 0.00 39 1010.6
20220624233137 101 5 1.0 4.0 0.00 0.00 0.00 38 1010.6
20220624232127 101 136 2.0 7.0 0.00 0.00 0.00 38 1010.5
20220624231136 100 9 4.0 6.0 0.00 0.00 0.00 37 1010.5
20220624230138 100 255 3.0 8.0 0.00 0.00 0.00 38 1010.6
20220624225127 100 5 2.0 3.0 0.00 0.00 0.00 40 1010.6
20220624224147 100 216 1.0 4.0 0.00 0.00 0.00 39 1010.7
20220624223135 100 5 1.0 3.0 0.00 0.00 0.00 39 1010.7
20220624222144 100 15 1.0 5.0 0.00 0.00 0.00 39 1010.7
20220624221134 100 5 2.0 4.0 0.00 0.00 0.00 39 1010.8
20220624220128 99 236 1.0 6.0 0.00 0.00 0.00 40 1010.9
20220624215141 99 70 2.0 6.0 0.00 0.00 0.00 40 1011.1
20220624214150 99 130 3.0 7.0 0.00 0.00 0.00 39 1011.2
20220624213139 100 163 4.0 8.0 0.00 0.00 0.00 37 1011.3
20220624212128 101 62 1.0 4.0 0.00 0.00 0.00 39 1011.4
20220624211136 98 250 1.0 6.0 0.00 0.00 0.00 42 1011.5
20220624210129 99 132 2.0 7.0 0.00 0.00 0.00 40 1011.6
20220624205148 100 104 1.0 5.0 0.00 0.00 0.00 38 1011.7
20220624204138 101 246 2.0 6.0 0.00 0.00 0.00 37 1011.7
20220624203129 101 198 3.0 10.0 0.00 0.00 0.00 36 1011.9
20220624202140 102 238 3.0 10.0 0.00 0.00 0.00 36 1011.9
20220624201129 101 124 4.0 12.0 0.00 0.00 0.00 35 1011.9
20220624200130 101 178 6.0 9.0 0.00 0.00 0.00 35 1012.0
20220624195150 101 185 3.0 7.0 0.00 0.00 0.00 37 1012.1
20220624194131 101 306 2.0 7.0 0.00 0.00 0.00 37 1012.2
20220624193150 100 181 1.0 9.0 0.00 0.00 0.00 38 1012.3
20220624192140 100 158 2.0 7.0 0.00 0.00 0.00 38 1012.4
20220624191129 99 261 3.0 7.0 0.00 0.00 0.00 39 1012.5
20220624190149 99 132 3.0 9.0 0.00 0.00 0.00 41 1012.7
20220624185139 99 211 3.0 7.0 0.00 0.00 0.00 40 1012.8
20220624184130 98 169 2.0 10.0 0.00 0.00 0.00 42 1012.9
20220624183137 98 166 2.0 10.0 0.00 0.00 0.00 40 1013.0
20220624182138 99 218 0.0 8.0 0.00 0.00 0.00 42 1013.1
20220624181127 98 195 2.0 5.0 0.00 0.00 0.00 44 1013.2
20220624180151 98 214 2.0 9.0 0.00 0.00 0.00 45 1013.4
20220624175142 97 231 4.0 9.0 0.00 0.00 0.00 45 1013.5
20220624174133 97 263 3.0 7.0 0.00 0.00 0.00 44 1013.5
20220624173143 97 166 4.0 10.0 0.00 0.00 0.00 45 1013.7
20220624172133 96 224 6.0 12.0 0.00 0.00 0.00 46 1013.6
20220624171143 96 151 4.0 9.0 0.00 0.00 0.00 46 1013.8
20220624170124 96 165 2.0 9.0 0.00 0.00 0.00 48 1013.8
20220624165133 95 224 3.0 7.0 0.00 0.00 0.00 47 1013.9
20220624164151 95 230 4.0 9.0 0.00 0.00 0.00 48 1014.0
20220624163142 94 266 4.0 7.0 0.00 0.00 0.00 49 1014.0
20220624162129 93 213 3.0 8.0 0.00 0.00 0.00 50 1014.0
20220624161138 93 179 4.0 8.0 0.00 0.00 0.00 49 1014.1
20220624160134 94 192 1.0 7.0 0.00 0.00 0.00 50 1014.1
20220624155125 93 286 2.0 9.0 0.00 0.00 0.00 51 1014.0
20220624154144 93 159 3.0 7.0 0.00 0.00 0.00 52 1014.0
20220624153133 91 172 2.0 6.0 0.00 0.00 0.00 54 1014.1
20220624152140 91 228 3.0 7.0 0.00 0.00 0.00 54 1014.1
20220624151129 90 224 3.0 7.0 0.00 0.00 0.00 55 1014.2
20220624150133 90 184 3.0 7.0 0.00 0.00 0.00 54 1014.1
20220624145138 89 205 3.0 8.0 0.00 0.00 0.00 55 1014.1
20220624144128 88 244 3.0 9.0 0.00 0.00 0.00 57 1014.1
20220624143139 87 269 5.0 9.0 0.00 0.00 0.00 57 1014.2
20220624142128 87 98 5.0 8.0 0.00 0.00 0.00 59 1014.1
20220624141135 86 216 3.0 9.0 0.00 0.00 0.00 60 1014.1
20220624140135 85 198 4.0 7.0 0.00 0.00 0.00 62 1014.1
20220624135125 85 184 3.0 8.0 0.00 0.00 0.00 64 1014.0
20220624134144 84 252 4.0 9.0 0.00 0.00 0.00 67 1013.9
20220624133134 83 193 3.0 7.0 0.00 0.00 0.00 69 1013.9
20220624132143 82 207 2.0 5.0 0.00 0.00 0.00 71 1013.9
20220624131129 82 205 1.0 5.0 0.00 0.00 0.00 74 1013.8
20220624130124 81 198 2.0 5.0 0.00 0.00 0.00 75 1013.8
20220624125144 81 243 2.0 4.0 0.00 0.00 0.00 76 1013.6
20220624124134 80 226 1.0 3.0 0.00 0.00 0.00 78 1013.6
20220624123142 79 219 0.0 2.0 0.00 0.00 0.00 80 1013.5
20220624122133 78 199 0.0 2.0 0.00 0.00 0.00 81 1013.5
20220624121142 78 199 0.0 1.0 0.00 0.00 0.00 82 1013.4
20220624120145 77 199 0.0 1.0 0.00 0.00 0.00 83 1013.4
20220624115135 77 199 0.0 1.0 0.00 0.00 0.00 83 1013.3
20220624114125 77 199 0.0 1.0 0.00 0.00 0.00 83 1013.1
20220624113136 78 199 0.0 0.0 0.00 0.00 0.00 83 1013.1
20220624112138 78 199 0.0 1.0 0.00 0.00 0.00 82 1012.9
20220624111125 78 199 0.0 3.0 0.00 0.00 0.00 82 1012.9
20220624110128 78 199 1.0 3.0 0.00 0.00 0.00 82 1012.8
20220624105147 78 198 0.0 4.0 0.00 0.00 0.00 82 1012.6
20220624104138 78 196 0.0 3.0 0.00 0.00 0.00 82 1012.5
20220624103128 78 192 0.0 1.0 0.00 0.00 0.00 82 1012.4
20220624102138 79 192 0.0 3.0 0.00 0.00 0.00 82 1012.3
20220624101127 79 191 1.0 3.0 0.00 0.00 0.00 81 1012.3
20220624100152 78 179 0.0 1.0 0.00 0.00 0.00 82 1012.3
20220624095138 78 179 1.0 2.0 0.00 0.00 0.00 83 1012.2
20220624094127 79 179 0.0 1.0 0.00 0.00 0.00 82 1012.2
20220624093137 79 179 0.0 2.0 0.00 0.00 0.00 82 1012.2
20220624092125 79 179 0.0 2.0 0.00 0.00 0.00 82 1012.1
20220624091135 79 179 0.0 1.0 0.00 0.00 0.00 82 1012.1
20220624090139 79 179 0.0 1.0 0.00 0.00 0.00 82 1012.0
20220624085130 79 179 0.0 1.0 0.00 0.00 0.00 81 1012.1
20220624084141 79 179 0.0 1.0 0.00 0.00 0.00 81 1012.1
20220624083132 80 179 0.0 1.0 0.00 0.00 0.00 80 1012.1
20220624082141 80 179 0.0 1.0 0.00 0.00 0.00 79 1012.2
20220624081128 80 178 0.0 2.0 0.00 0.00 0.00 79 1012.2
20220624080125 80 177 1.0 1.0 0.00 0.00 0.00 79 1012.3
20220624075146 80 177 0.0 2.0 0.00 0.00 0.00 79 1012.4
20220624074134 80 141 0.0 2.0 0.00 0.00 0.00 78 1012.4
20220624073144 80 132 0.0 2.0 0.00 0.00 0.00 78 1012.5
20220624072135 80 96 0.0 1.0 0.00 0.00 0.00 78 1012.4
20220624071124 81 96 0.0 0.0 0.00 0.00 0.00 77 1012.3
20220624070148 81 96 0.0 1.0 0.00 0.00 0.00 77 1012.3
20220624065126 81 96 0.0 2.0 0.00 0.00 0.00 76 1012.4
20220624064137 82 97 1.0 2.0 0.00 0.00 0.00 75 1012.4
20220624063141 82 107 0.0 3.0 0.00 0.00 0.00 75 1012.3
20220624062132 82 171 0.0 3.0 0.00 0.00 0.00 74 1012.3
20220624061140 82 167 0.0 3.0 0.00 0.00 0.00 74 1012.4
20220624060141 83 194 1.0 2.0 0.00 0.00 0.00 74 1012.4
20220624055132 83 182 0.0 3.0 0.00 0.00 0.00 74 1012.5
20220624054140 82 212 1.0 3.0 0.00 0.00 0.00 74 1012.5
20220624053126 82 205 1.0 4.0 0.00 0.00 0.00 75 1012.6
20220624052144 82 360 0.0 2.0 0.00 0.00 0.00 76 1012.6
20220624051124 82 5 1.0 2.0 0.00 0.00 0.00 75 1012.7
20220624050137 82 5 1.0 2.0 0.00 0.00 0.00 75 1012.8
20220624045128 82 115 0.0 1.0 0.00 0.00 0.00 74 1012.9
20220624044129 82 120 0.0 5.0 0.00 0.00 0.00 75 1013.0
20220624043140 82 25 0.0 3.0 0.00 0.00 0.00 74 1013.0
20220624042131 83 24 0.0 2.0 0.00 0.00 0.00 73 1013.2
20220624041138 83 24 1.0 3.0 0.00 0.00 0.00 73 1013.2